Location: Unspecified
(0.0000°N, 0.0000°E)
Time: 02:29:15
(UTC+00:00)

Vanguard 1 Rocket - Pass Details

Date: 11 December 2017
Orbit: 654 x 4223 km, 34.3° (Epoch: 22 April)

Event Time Altitude Azimuth Distance (km) Brightness Sun altitude
Rises 02:30:43 0° 300° (WNW) 8,438 - -45.4°
Reaches altitude 10° 02:36:45 10° 298° (WNW) 7,418 - -44.1°
Exits shadow 02:56:36 55° 265° (W) 4,077 10.2 -39.9°
Maximum altitude 03:01:42 64° 221° (SW) 3,547 10.1 -38.8°
Drops below altitude 10° 03:16:31 10° 140° (SE) 4,716 11.7 -35.5°
Sets 03:19:26 0° 137° (SE) 5,352 12.3 -34.9°
